QPF
0.00 0.00 0.00 0.01 0.00 0.01 0.01 0.00 0.00 0.00 0.00 0.01 0.03 0.03 0.05 0.06 0.09 0.06 0.05 0.05 0.03 0.02 0.01 0.01 0.01 0.01 0.01 0.01 0.01 0.02 0.01 0.02 0.03 0.05 0.03 0.02 0.02 0.01 0.01 0.01 0.03 0.03 0.04 0.04
0.00 0.01 0.00 0.00 0.00 0.00 0.00 0.00 0.00 0.00 0.01 0.01 0.02 0.02 0.05 0.05 0.06 0.06 0.05 0.05 0.03 0.02 0.01 0.01 0.01 0.00 0.00 0.01 0.01 0.01 0.01 0.02 0.04 0.04 0.03 0.02 0.01 0.01 0.01 0.02 0.03 0.03 0.03 0.06
0.00 0.01 0.00 0.00 0.00 0.00 0.00 0.00 0.00 0.00 0.01 0.01 0.02 0.02 0.04 0.05 0.06 0.04 0.04 0.04 0.03 0.03 0.02 0.01 0.01 0.00 0.00 0.00 0.01 0.01 0.01 0.02 0.04 0.04 0.02 0.01 0.02 0.02 0.01 0.02 0.02 0.03 0.04 0.06
0.00 0.00 0.01 0.00 0.00 0.00 0.01 0.01 0.00 0.00 0.00 0.01 0.02 0.02 0.07 0.08 0.04 0.03 0.05 0.05 0.04 0.03 0.02 0.01 0.01 0.01 0.01 0.00 0.00 0.01 0.01 0.03 0.04 0.02 0.01 0.01 0.01 0.01 0.01 0.01 0.02 0.03 0.04 0.07
0.00 0.00 0.00 0.00 0.00 0.00 0.01 0.01 0.01 0.00 0.01 0.02 0.02 0.02 0.04 0.05 0.05 0.05 0.04 0.04 0.03 0.03 0.03 0.03 0.05 0.06 0.04 0.02 0.01 0.01 0.02 0.03 0.02 0.01 0.00 0.00 0.01 0.00 0.01 0.01 0.02 0.02 0.03 0.04
0.01 0.00 0.00 0.00 0.00 0.00 0.00 0.01 0.01 0.01 0.01 0.02 0.01 0.01 0.03 0.04 0.05 0.05 0.04 0.04 0.03 0.02 0.04 0.05 0.04 0.04 0.05 0.04 0.02 0.03 0.03 0.02 0.02 0.01 0.01 0.01 0.01 0.01 0.01 0.01 0.02 0.02 0.02 0.02
0.01 0.00 0.00 0.00 0.00 0.00 0.00 0.01 0.01 0.02 0.02 0.02 0.01 0.03 0.04 0.05 0.08 0.08 0.08 0.08 0.05 0.04 0.07 0.05 0.03 0.03 0.02 0.02 0.02 0.03 0.02 0.02 0.02 0.02 0.02 0.01 0.01 0.01 0.02 0.02 0.02 0.02 0.02 0.02
0.01 0.00 0.00 0.00 0.00 0.00 0.00 0.00 0.01 0.02 0.04 0.03 0.02 0.04 0.04 0.06 0.09 0.08 0.08 0.06 0.04 0.03 0.02 0.03 0.04 0.03 0.02 0.03 0.02 0.02 0.02 0.02 0.02 0.02 0.01 0.02 0.01 0.01 0.01 0.01 0.01 0.01 0.01 0.01
0.01 0.01 0.01 0.01 0.01 0.00 0.00 0.00 0.01 0.01 0.03 0.03 0.03 0.04 0.05 0.06 0.06 0.04 0.04 0.04 0.04 0.03 0.02 0.03 0.05 0.05 0.04 0.04 0.05 0.04 0.05 0.06 0.06 0.04 0.03 0.03 0.02 0.01 0.01 0.01 0.01 0.01 0.01 0.02
0.01 0.01 0.00 0.00 0.01 0.01 0.00 0.01 0.01 0.02 0.04 0.06 0.04 0.05 0.06 0.05 0.05 0.05 0.04 0.04 0.04 0.03 0.03 0.03 0.04 0.04 0.05 0.06 0.09 0.07 0.07 0.10 0.13 0.10 0.07 0.05 0.03 0.02 0.02 0.02 0.02 0.02 0.02 0.02
0.01 0.01 0.00 0.00 0.00 0.00 0.01 0.01 0.01 0.01 0.03 0.05 0.06 0.05 0.04 0.04 0.05 0.04 0.04 0.03 0.03 0.05 0.07 0.09 0.05 0.03 0.04 0.05 0.08 0.07 0.07 0.08 0.09 0.09 0.07 0.05 0.04 0.03 0.02 0.02 0.02 0.02 0.02 0.02
0.01 0.01 0.01 0.00 0.00 0.00 0.00 0.01 0.01 0.00 0.01 0.02 0.04 0.07 0.05 0.03 0.05 0.04 0.03 0.02 0.03 0.05 0.09 0.11 0.05 0.03 0.03 0.03 0.04 0.04 0.04 0.04 0.04 0.04 0.03 0.02 0.03 0.03 0.02 0.02 0.02 0.02 0.02 0.02
0.00 0.00 0.01 0.00 0.00 0.00 0.00 0.00 0.00 0.00 0.00 0.01 0.02 0.04 0.04 0.02 0.03 0.04 0.03 0.02 0.03 0.06 0.11 0.10 0.05 0.02 0.02 0.02 0.02 0.03 0.03 0.02 0.02 0.02 0.01 0.01 0.01 0.01 0.02 0.02 0.02 0.02 0.03 0.02
0.00 0.00 0.01 0.00 0.00 0.00 0.00 0.00 0.00 0.00 0.01 0.01 0.02 0.02 0.03 0.03 0.04 0.03 0.04 0.04 0.08 0.11 0.06 0.05 0.04 0.02 0.01 0.01 0.01 0.02 0.02 0.01 0.01 0.01 0.00 0.01 0.01 0.01 0.01 0.02 0.02 0.03 0.02 0.03
0.00 0.00 0.00 0.00 0.00 0.01 0.01 0.00 0.00 0.01 0.03 0.02 0.02 0.02 0.02 0.04 0.05 0.08 0.08 0.11 0.09 0.08 0.06 0.03 0.02 0.01 0.01 0.01 0.01 0.02 0.01 0.01 0.01 0.01 0.01 0.01 0.01 0.01 0.01 0.01 0.01 0.02 0.03 0.02
0.00 0.01 0.00 0.01 0.01 0.01 0.01 0.01 0.01 0.02 0.04 0.01 0.01 0.01 0.01 0.02 0.02 0.07 0.10 0.10 0.12 0.09 0.06 0.04 0.03 0.02 0.01 0.01 0.01 0.02 0.02 0.02 0.02 0.03 0.02 0.01 0.02 0.02 0.02 0.01 0.01 0.01 0.02 0.02
0.00 0.01 0.02 0.02 0.01 0.01 0.02 0.03 0.05 0.03 0.02 0.01 0.02 0.02 0.01 0.01 0.01 0.04 0.12 0.10 0.10 0.08 0.06 0.05 0.03 0.02 0.02 0.01 0.01 0.01 0.02 0.02 0.03 0.03 0.02 0.01 0.02 0.02 0.02 0.02 0.02 0.03 0.03 0.04
0.00 0.01 0.03 0.03 0.02 0.01 0.01 0.04 0.05 0.02 0.01 0.02 0.02 0.02 0.01 0.01 0.01 0.02 0.07 0.10 0.06 0.05 0.03 0.03 0.04 0.03 0.03 0.03 0.03 0.03 0.03 0.03 0.03 0.03 0.03 0.02 0.02 0.02 0.01 0.02 0.02 0.03 0.04 0.04
0.02 0.01 0.01 0.02 0.02 0.02 0.01 0.02 0.02 0.01 0.01 0.01 0.01 0.01 0.01 0.01 0.03 0.04 0.03 0.03 0.04 0.05 0.06 0.06 0.06 0.05 0.05 0.04 0.04 0.04 0.03 0.03 0.02 0.02 0.03 0.04 0.03 0.02 0.02 0.02 0.02 0.02 0.02 0.02
0.01 0.01 0.01 0.02 0.02 0.01 0.01 0.01 0.01 0.01 0.01 0.01 0.01 0.01 0.01 0.01 0.02 0.04 0.05 0.03 0.04 0.05 0.06 0.06 0.05 0.04 0.03 0.02 0.03 0.03 0.04 0.04 0.03 0.02 0.02 0.03 0.03 0.02 0.02 0.02 0.02 0.02 0.02 0.02
0.01 0.01 0.01 0.01 0.01 0.01 0.01 0.01 0.01 0.01 0.01 0.01 0.01 0.01 0.01 0.01 0.01 0.01 0.02 0.03 0.03 0.06 0.09 0.08 0.07 0.06 0.05 0.04 0.04 0.04 0.04 0.04 0.04 0.04 0.03 0.03 0.03 0.03 0.02 0.03 0.03 0.03 0.02 0.02
0.01 0.01 0.01 0.02 0.02 0.02 0.01 0.00 0.01 0.01 0.01 0.01 0.02 0.01 0.01 0.01 0.01 0.00 0.00 0.01 0.01 0.02 0.04 0.06 0.07 0.09 0.08 0.06 0.04 0.03 0.03 0.04 0.04 0.04 0.04 0.04 0.03 0.03 0.03 0.03 0.03 0.03 0.03 0.02
0.01 0.01 0.02 0.02 0.02 0.01 0.01 0.01 0.01 0.01 0.01 0.01 0.01 0.01 0.01 0.01 0.01 0.01 0.01 0.01 0.01 0.01 0.01 0.02 0.06 0.07 0.06 0.05 0.04 0.04 0.04 0.04 0.03 0.03 0.03 0.03 0.03 0.03 0.03 0.04 0.03 0.03 0.03 0.03
0.01 0.01 0.03 0.04 0.03 0.02 0.02 0.01 0.01 0.01 0.01 0.01 0.01 0.01 0.01 0.01 0.03 0.06 0.04 0.02 0.01 0.01 0.01 0.02 0.04 0.07 0.07 0.07 0.07 0.07 0.06 0.04 0.03 0.02 0.02 0.02 0.02 0.03 0.03 0.04 0.04 0.04 0.03 0.03
0.01 0.02 0.02 0.03 0.02 0.02 0.02 0.02 0.02 0.01 0.01 0.01 0.01 0.01 0.01 0.01 0.01 0.04 0.03 0.02 0.01 0.02 0.02 0.04 0.07 0.06 0.06 0.07 0.08 0.08 0.07 0.05 0.04 0.02 0.01 0.01 0.01 0.01 0.02 0.02 0.03 0.03 0.03 0.03
0.02 0.02 0.02 0.02 0.02 0.03 0.04 0.04 0.03 0.02 0.01 0.01 0.01 0.01 0.01 0.02 0.02 0.02 0.02 0.02 0.02 0.02 0.04 0.04 0.06 0.09 0.09 0.08 0.08 0.07 0.06 0.05 0.04 0.02 0.01 0.01 0.01 0.01 0.01 0.01 0.01 0.02 0.02 0.02
MSLP
1007.34 1007.90 1008.34 1008.70 1009.06 1009.52 1010.12 1010.91 1011.86 1012.90 1013.94 1014.86 1015.59 1016.08 1016.33 1016.36 1016.25 1016.09 1015.93 1015.83 1015.80 1015.82 1015.88 1015.94 1015.97 1015.98 1015.98 1016.02 1016.11 1016.31 1016.61 1016.99 1017.41 1017.81 1018.11 1018.28 1018.30 1018.16 1017.91 1017.61 1017.32 1017.10 1016.98 1016.98
1007.93 1008.29 1008.49 1008.63 1008.82 1009.15 1009.72 1010.55 1011.59 1012.75 1013.90 1014.93 1015.73 1016.24 1016.48 1016.49 1016.35 1016.18 1016.04 1016.00 1016.05 1016.18 1016.34 1016.46 1016.53 1016.53 1016.48 1016.43 1016.43 1016.53 1016.76 1017.11 1017.53 1017.96 1018.32 1018.56 1018.64 1018.54 1018.29 1017.97 1017.63 1017.34 1017.15 1017.07
1008.27 1008.41 1008.39 1008.33 1008.37 1008.64 1009.22 1010.12 1011.28 1012.58 1013.86 1014.96 1015.80 1016.30 1016.48 1016.40 1016.19 1015.97 1015.82 1015.80 1015.93 1016.15 1016.42 1016.64 1016.78 1016.81 1016.76 1016.67 1016.61 1016.64 1016.82 1017.14 1017.57 1018.03 1018.46 1018.76 1018.90 1018.84 1018.62 1018.29 1017.92 1017.58 1017.32 1017.18
1008.35 1008.28 1008.07 1007.86 1007.82 1008.09 1008.74 1009.76 1011.06 1012.50 1013.89 1015.05 1015.88 1016.31 1016.38 1016.17 1015.83 1015.49 1015.28 1015.25 1015.42 1015.73 1016.10 1016.45 1016.69 1016.80 1016.79 1016.71 1016.64 1016.64 1016.79 1017.10 1017.53 1018.02 1018.49 1018.86 1019.06 1019.06 1018.88 1018.56 1018.18 1017.80 1017.49 1017.29
1008.28 1008.01 1007.64 1007.34 1007.29 1007.61 1008.37 1009.54 1011.01 1012.58 1014.05 1015.24 1016.01 1016.33 1016.24 1015.84 1015.31 1014.81 1014.49 1014.41 1014.59 1014.97 1015.45 1015.93 1016.30 1016.53 1016.60 1016.58 1016.54 1016.55 1016.69 1016.99 1017.42 1017.93 1018.44 1018.86 1019.12 1019.18 1019.04 1018.75 1018.37 1017.98 1017.64 1017.40
1008.14 1007.70 1007.22 1006.88 1006.85 1007.27 1008.17 1009.51 1011.13 1012.81 1014.34 1015.51 1016.19 1016.36 1016.06 1015.44 1014.70 1014.02 1013.56 1013.41 1013.58 1014.00 1014.58 1015.19 1015.70 1016.07 1016.26 1016.33 1016.35 1016.39 1016.54 1016.84 1017.27 1017.78 1018.31 1018.76 1019.06 1019.17 1019.08 1018.83 1018.48 1018.10 1017.75 1017.48
1008.06 1007.47 1006.91 1006.56 1006.59 1007.12 1008.16 1009.64 1011.37 1013.13 1014.66 1015.78 1016.35 1016.35 1015.85 1015.01 1014.06 1013.20 1012.60 1012.37 1012.51 1012.98 1013.64 1014.36 1015.02 1015.52 1015.85 1016.02 1016.11 1016.20 1016.37 1016.66 1017.08 1017.58 1018.10 1018.56 1018.88 1019.03 1018.98 1018.78 1018.46 1018.11 1017.77 1017.49
1008.09 1007.39 1006.78 1006.43 1006.52 1007.14 1008.28 1009.85 1011.64 1013.41 1014.90 1015.94 1016.37 1016.21 1015.54 1014.52 1013.41 1012.41 1011.71 1011.42 1011.54 1012.03 1012.75 1013.57 1014.34 1014.97 1015.42 1015.70 1015.86 1016.00 1016.18 1016.46 1016.85 1017.32 1017.81 1018.26 1018.58 1018.74 1018.73 1018.57 1018.30 1017.97 1017.66 1017.38
1008.27 1007.49 1006.84 1006.51 1006.63 1007.30 1008.47 1010.05 1011.81 1013.52 1014.92 1015.84 1016.15 1015.86 1015.06 1013.95 1012.74 1011.68 1010.94 1010.62 1010.74 1011.24 1012.01 1012.90 1013.75 1014.46 1015.00 1015.36 1015.59 1015.76 1015.95 1016.22 1016.57 1016.99 1017.44 1017.84 1018.15 1018.31 1018.31 1018.18 1017.94 1017.65 1017.36 1017.10
1008.57 1007.74 1007.08 1006.76 1006.89 1007.53 1008.66 1010.15 1011.80 1013.36 1014.61 1015.38 1015.58 1015.20 1014.36 1013.23 1012.04 1011.00 1010.28 1009.99 1010.13 1010.65 1011.44 1012.34 1013.23 1013.99 1014.58 1014.98 1015.25 1015.45 1015.65 1015.89 1016.20 1016.57 1016.96 1017.31 1017.58 1017.73 1017.73 1017.61 1017.40 1017.14 1016.88 1016.64
1008.95 1008.14 1007.49 1007.16 1007.25 1007.82 1008.81 1010.11 1011.53 1012.87 1013.92 1014.52 1014.61 1014.20 1013.39 1012.34 1011.25 1010.32 1009.71 1009.49 1009.67 1010.21 1010.99 1011.87 1012.74 1013.49 1014.08 1014.50 1014.79 1015.01 1015.20 1015.43 1015.71 1016.03 1016.37 1016.67 1016.89 1017.01 1017.00 1016.89 1016.70 1016.47 1016.23 1016.01
1009.37 1008.62 1008.01 1007.68 1007.71 1008.13 1008.90 1009.93 1011.05 1012.08 1012.87 1013.29 1013.28 1012.87 1012.14 1011.24 1010.34 1009.60 1009.14 1009.03 1009.28 1009.82 1010.56 1011.39 1012.20 1012.90 1013.46 1013.86 1014.16 1014.38 1014.58 1014.81 1015.08 1015.37 1015.66 1015.92 1016.11 1016.20 1016.19 1016.08 1015.90 1015.69 1015.47 1015.27
1009.81 1009.17 1008.63 1008.30 1008.24 1008.47 1008.97 1009.65 1010.40 1011.08 1011.57 1011.77 1011.67 1011.28 1010.67 1009.96 1009.29 1008.78 1008.52 1008.54 1008.85 1009.39 1010.08 1010.82 1011.53 1012.15 1012.65 1013.03 1013.32 1013.55 1013.78 1014.03 1014.31 1014.60 1014.88 1015.12 1015.29 1015.37 1015.35 1015.25 1015.09 1014.90 1014.70 1014.52
1010.27 1009.77 1009.33 1009.00 1008.84 1008.86 1009.04 1009.34 1009.67 1009.95 1010.11 1010.09 1009.88 1009.51 1009.04 1008.54 1008.12 1007.86 1007.80 1007.96 1008.33 1008.85 1009.47 1010.11 1010.70 1011.22 1011.65 1012.00 1012.29 1012.56 1012.83 1013.13 1013.44 1013.76 1014.06 1014.31 1014.49 1014.58 1014.57 1014.49 1014.35 1014.19 1014.02 1013.86
1010.76 1010.42 1010.08 1009.75 1009.48 1009.27 1009.12 1009.02 1008.92 1008.79 1008.61 1008.36 1008.05 1007.69 1007.34 1007.05 1006.87 1006.84 1006.97 1007.26 1007.68 1008.19 1008.73 1009.26 1009.74 1010.17 1010.53 1010.86 1011.16 1011.48 1011.82 1012.18 1012.56 1012.94 1013.28 1013.57 1013.77 1013.88 1013.90 1013.85 1013.75 1013.63 1013.49 1013.36
1011.29 1011.10 1010.83 1010.50 1010.10 1009.66 1009.18 1008.69 1008.18 1007.66 1007.16 1006.69 1006.26 1005.92 1005.68 1005.58 1005.61 1005.79 1006.09 1006.49 1006.96 1007.44 1007.91 1008.34 1008.73 1009.08 1009.39 1009.71 1010.05 1010.42 1010.84 1011.29 1011.75 1012.20 1012.60 1012.93 1013.18 1013.33 1013.39 1013.39 1013.33 1013.25 1013.15 1013.05
1011.85 1011.76 1011.53 1011.15 1010.62 1009.95 1009.17 1008.32 1007.44 1006.58 1005.80 1005.13 1004.62 1004.29 1004.15 1004.20 1004.42 1004.78 1005.23 1005.72 1006.22 1006.70 1007.11 1007.47 1007.79 1008.08 1008.38 1008.70 1009.08 1009.52 1010.02 1010.55 1011.10 1011.61 1012.07 1012.45 1012.74 1012.93 1013.04 1013.09 1013.09 1013.05 1013.00 1012.93
1012.42 1012.35 1012.10 1011.63 1010.95 1010.06 1009.01 1007.86 1006.68 1005.55 1004.55 1003.74 1003.17 1002.86 1002.82 1003.01 1003.39 1003.90 1004.47 1005.05 1005.59 1006.06 1006.45 1006.77 1007.05 1007.32 1007.61 1007.96 1008.39 1008.90 1009.46 1010.06 1010.66 1011.23 1011.73 1012.14 1012.46 1012.69 1012.84 1012.93 1012.97 1012.98 1012.96 1012.92
1012.94 1012.80 1012.46 1011.86 1011.01 1009.92 1008.65 1007.27 1005.87 1004.56 1003.42 1002.54 1001.96 1001.71 1001.76 1002.08 1002.60 1003.24 1003.92 1004.57 1005.16 1005.64 1006.03 1006.34 1006.61 1006.88 1007.19 1007.58 1008.05 1008.60 1009.22 1009.85 1010.48 1011.06 1011.57 1011.99 1012.32 1012.56 1012.73 1012.85 1012.92 1012.96 1012.98 1012.96
1013.34 1013.07 1012.57 1011.82 1010.79 1009.53 1008.09 1006.55 1005.03 1003.63 1002.45 1001.57 1001.04 1000.86 1001.02 1001.47 1002.11 1002.86 1003.63 1004.35 1004.98 1005.49 1005.90 1006.22 1006.51 1006.81 1007.15 1007.57 1008.07 1008.65 1009.28 1009.92 1010.54 1011.10 1011.58 1011.98 1012.28 1012.51 1012.67 1012.80 1012.88 1012.94 1012.98 1012.97
1013.59 1013.14 1012.45 1011.53 1010.34 1008.95 1007.40 1005.79 1004.24 1002.84 1001.70 1000.88 1000.44 1000.38 1000.65 1001.21 1001.95 1002.79 1003.63 1004.41 1005.08 1005.63 1006.07 1006.42 1006.74 1007.07 1007.44 1007.88 1008.40 1008.98 1009.59 1010.20 1010.78 1011.29 1011.71 1012.05 1012.31 1012.50 1012.64 1012.75 1012.83 1012.89 1012.91 1012.90
1013.66 1013.01 1012.15 1011.07 1009.76 1008.29 1006.71 1005.11 1003.60 1002.28 1001.24 1000.55 1000.24 1000.29 1000.68 1001.33 1002.15 1003.04 1003.93 1004.75 1005.45 1006.03 1006.49 1006.88 1007.23 1007.59 1007.99 1008.44 1008.96 1009.52 1010.09 1010.64 1011.15 1011.58 1011.93 1012.20 1012.39 1012.52 1012.62 1012.69 1012.74 1012.78 1012.79 1012.76
1013.57 1012.75 1011.74 1010.55 1009.18 1007.69 1006.14 1004.63 1003.23 1002.06 1001.18 1000.64 1000.46 1000.64 1001.11 1001.83 1002.69 1003.61 1004.51 1005.33 1006.04 1006.63 1007.11 1007.52 1007.90 1008.28 1008.69 1009.14 1009.64 1010.16 1010.68 1011.16 1011.58 1011.93 1012.20 1012.38 1012.50 1012.57 1012.62 1012.64 1012.66 1012.66 1012.64 1012.58
1013.31 1012.39 1011.31 1010.07 1008.71 1007.28 1005.83 1004.46 1003.24 1002.25 1001.55 1001.17 1001.13 1001.40 1001.94 1002.68 1003.54 1004.44 1005.31 1006.10 1006.79 1007.37 1007.85 1008.27 1008.65 1009.04 1009.45 1009.89 1010.35 1010.82 1011.28 1011.68 1012.03 1012.30 1012.48 1012.59 1012.65 1012.66 1012.65 1012.63 1012.60 1012.56 1012.49 1012.39
1012.93 1011.98 1010.89 1009.69 1008.41 1007.11 1005.83 1004.65 1003.64 1002.86 1002.34 1002.12 1002.19 1002.53 1003.09 1003.82 1004.63 1005.47 1006.27 1007.00 1007.64 1008.18 1008.64 1009.04 1009.42 1009.80 1010.19 1010.60 1011.02 1011.44 1011.83 1012.17 1012.44 1012.64 1012.76 1012.82 1012.82 1012.79 1012.73 1012.67 1012.59 1012.50 1012.39 1012.24
1012.42 1011.51 1010.50 1009.41 1008.28 1007.16 1006.10 1005.15 1004.37 1003.80 1003.46 1003.38 1003.54 1003.92 1004.47 1005.14 1005.88 1006.62 1007.33 1007.97 1008.53 1009.01 1009.42 1009.80 1010.15 1010.50 1010.86 1011.23 1011.61 1011.97 1012.30 1012.58 1012.80 1012.95 1013.03 1013.04 1013.01 1012.95 1012.86 1012.76 1012.65 1012.51 1012.35 1012.14
Thickness
5837 5817 5805 5813 5819 5820 5816 5808 5803 5814 5830 5821 5810 5805 5809 5816 5814 5810 5809 5810 5809 5811 5815 5816 5815 5814 5811 5808 5805 5803 5800 5798 5796 5793 5790 5787 5785 5786 5786 5786 5786 5784 5783 5781
5814 5809 5829 5837 5836 5829 5820 5808 5805 5816 5830 5821 5807 5804 5811 5815 5814 5815 5812 5811 5811 5811 5811 5813 5814 5813 5811 5808 5806 5804 5801 5799 5797 5794 5792 5790 5788 5787 5786 5786 5785 5784 5783 5782
5808 5824 5843 5836 5828 5822 5816 5810 5810 5810 5818 5819 5806 5794 5801 5811 5816 5817 5817 5816 5816 5815 5812 5812 5812 5812 5811 5808 5807 5807 5803 5800 5798 5796 5793 5790 5787 5785 5784 5783 5783 5783 5783 5781
5819 5837 5837 5830 5827 5825 5809 5831 5829 5821 5803 5791 5799 5770 5791 5801 5804 5810 5812 5814 5815 5817 5816 5813 5812 5811 5811 5811 5811 5807 5804 5801 5799 5797 5793 5788 5784 5780 5781 5782 5782 5782 5782 5781
5814 5831 5829 5824 5833 5836 5826 5840 5832 5824 5805 5789 5792 5775 5781 5797 5793 5801 5808 5814 5817 5818 5818 5815 5814 5814 5814 5814 5812 5809 5805 5802 5800 5797 5794 5789 5785 5783 5783 5782 5781 5780 5780 5780
5825 5841 5841 5839 5847 5847 5842 5831 5821 5806 5790 5769 5783 5775 5773 5789 5798 5804 5810 5815 5817 5818 5819 5817 5816 5814 5814 5814 5812 5808 5803 5801 5799 5797 5793 5790 5786 5783 5781 5779 5777 5777 5777 5777
5809 5825 5842 5849 5834 5837 5830 5798 5771 5766 5754 5759 5784 5777 5779 5806 5815 5814 5813 5814 5818 5818 5817 5815 5812 5811 5810 5810 5809 5807 5803 5799 5798 5796 5793 5790 5787 5784 5781 5778 5777 5775 5774 5774
5784 5790 5826 5840 5832 5821 5820 5801 5767 5752 5747 5757 5775 5772 5790 5817 5822 5822 5819 5819 5819 5817 5816 5815 5813 5811 5810 5809 5807 5805 5801 5798 5796 5794 5792 5790 5787 5784 5781 5779 5777 5775 5774 5774
5784 5790 5828 5841 5845 5834 5816 5803 5800 5772 5762 5750 5759 5777 5796 5815 5814 5813 5812 5812 5812 5814 5815 5813 5812 5810 5809 5807 5805 5803 5799 5796 5794 5792 5790 5787 5785 5783 5780 5779 5777 5775 5774 5773
5798 5789 5812 5831 5839 5834 5826 5813 5787 5767 5746 5739 5752 5761 5768 5789 5798 5802 5803 5805 5807 5809 5809 5809 5809 5807 5807 5806 5803 5802 5798 5794 5792 5790 5788 5786 5783 5781 5779 5777 5774 5773 5772 5770
5800 5782 5791 5807 5806 5804 5809 5802 5784 5765 5759 5739 5733 5750 5792 5794 5799 5797 5800 5803 5805 5805 5806 5806 5806 5806 5806 5805 5801 5797 5794 5792 5789 5788 5786 5783 5781 5779 5777 5774 5772 5771 5769 5767
5794 5775 5767 5786 5811 5821 5812 5800 5784 5763 5755 5750 5741 5753 5803 5803 5803 5801 5800 5802 5804 5804 5804 5804 5804 5801 5799 5798 5797 5794 5793 5790 5788 5787 5784 5782 5780 5777 5774 5771 5770 5768 5766 5764
5790 5766 5749 5759 5777 5796 5797 5798 5791 5774 5759 5747 5740 5756 5799 5801 5800 5800 5799 5798 5799 5800 5800 5798 5797 5795 5794 5793 5792 5791 5789 5788 5786 5784 5781 5778 5775 5773 5771 5769 5767 5765 5763 5761
5794 5760 5748 5742 5753 5772 5779 5788 5791 5774 5752 5748 5753 5762 5780 5787 5790 5793 5793 5794 5794 5793 5792 5791 5789 5789 5790 5790 5789 5787 5785 5785 5783 5780 5777 5773 5771 5769 5768 5766 5764 5762 5760 5757
5778 5755 5759 5763 5773 5779 5778 5780 5784 5777 5769 5757 5761 5765 5773 5783 5787 5790 5791 5789 5787 5785 5784 5784 5783 5782 5783 5783 5783 5782 5780 5779 5778 5775 5771 5769 5768 5766 5764 5762 5760 5758 5756 5754
5763 5752 5754 5756 5769 5771 5769 5775 5778 5777 5776 5769 5767 5765 5780 5784 5784 5783 5783 5783 5779 5778 5779 5780 5780 5777 5776 5776 5775 5775 5774 5773 5772 5769 5766 5765 5763 5761 5759 5757 5755 5753 5750 5748
5749 5743 5734 5731 5750 5755 5744 5762 5766 5766 5771 5768 5757 5762 5773 5773 5774 5773 5775 5776 5776 5773 5772 5773 5774 5773 5771 5771 5770 5768 5768 5767 5765 5763 5761 5759 5757 5755 5753 5752 5749 5746 5744 5741
5743 5732 5721 5721 5730 5720 5742 5769 5771 5765 5765 5768 5765 5765 5769 5769 5769 5770 5772 5770 5769 5769 5768 5768 5768 5767 5766 5765 5765 5764 5762 5760 5757 5755 5754 5753 5751 5748 5747 5744 5742 5740 5737 5734
5747 5732 5716 5708 5709 5719 5743 5760 5763 5752 5747 5761 5759 5760 5762 5764 5760 5757 5765 5766 5765 5765 5765 5764 5764 5762 5760 5758 5756 5754 5752 5751 5748 5745 5745 5745 5743 5742 5740 5737 5735 5734 5731 5728
5739 5730 5714 5705 5705 5705 5730 5758 5768 5754 5731 5753 5756 5752 5753 5752 5734 5739 5755 5759 5759 5759 5759 5757 5756 5754 5751 5750 5749 5745 5741 5739 5738 5738 5738 5738 5738 5736 5733 5731 5729 5726 5724 5721
5715 5711 5706 5700 5700 5711 5740 5756 5757 5725 5724 5747 5749 5747 5746 5740 5738 5743 5749 5750 5750 5750 5749 5749 5747 5744 5743 5743 5741 5736 5732 5730 5732 5732 5731 5730 5729 5728 5726 5724 5721 5718 5716 5713
5702 5697 5695 5693 5691 5702 5741 5744 5733 5729 5741 5743 5743 5742 5739 5738 5739 5739 5739 5739 5739 5738 5738 5738 5736 5734 5734 5734 5731 5727 5724 5725 5726 5724 5722 5721 5720 5719 5718 5714 5712 5709 5706 5703
5701 5702 5698 5699 5702 5721 5735 5736 5738 5738 5736 5737 5735 5734 5733 5730 5730 5730 5730 5730 5730 5730 5729 5728 5726 5723 5723 5723 5722 5717 5717 5717 5716 5714 5712 5711 5711 5709 5707 5704 5701 5699 5697 5693
5703 5708 5701 5699 5707 5719 5726 5731 5734 5735 5733 5734 5733 5730 5728 5724 5723 5721 5722 5721 5722 5722 5721 5719 5715 5712 5711 5712 5711 5710 5709 5708 5707 5704 5702 5701 5699 5698 5697 5695 5692 5689 5686 5683
5696 5698 5693 5692 5701 5709 5716 5720 5724 5727 5727 5726 5726 5725 5722 5719 5716 5715 5713 5712 5713 5712 5711 5710 5706 5704 5703 5703 5701 5701 5699 5698 5696 5694 5693 5692 5690 5688 5686 5684 5682 5680 5678 5676
5689 5689 5684 5683 5695 5695 5700 5712 5717 5717 5716 5717 5717 5715 5714 5712 5709 5707 5704 5704 5703 5703 5702 5700 5698 5697 5695 5694 5691 5691 5689 5688 5686 5684 5683 5682 5680 5678 5676 5673 5671 5671 5670 5669